sat.trackr.live / text

‹ back to catalog

STARLINK-2166

NORAD 48558 · 2021-041F

PAYLOAD ACTIVE UNKNOWN

§ Identity

Operator
Country
US
Launch date
2021-05-15
Launch site
AFETR
Launch vehicle
Mass (kg)
RCS (m²)

Purposes: comms

External: N2YO · Heavens-Above · Gunter

§ Orbital elements

Epoch: 2026-09-19T20:02:30.659712Z

Period
94.01 min
Inclination
53.1600°
Eccentricity
0.0001397
Mean motion
15.31703559 rev/d
Perigee alt
469.8 km
Apogee alt
471.7 km
Semi-major
6,848.9 km
B*
7.3123e-5
RAAN
303.3212°
Arg perigee
88.9652°
Mean anomaly
271.1510°
Rev number
29,416

§ Raw data

STARLINK-21661 48558U 21041F   26262.83507708  .00001905  00000+0  73123-4 0  99982 48558  53.1600 303.3212 0001397  88.9652 271.1510 15.31703559294167

JSON: /api/v1/satellites/48558 · /tle

For live sub-satellite position, see the globe view (requires WebGL).

§ Visibility from observer

Set your observer location to see the next 7 days of passes ≥ 10°. The values pass through the URL so the page stays shareable.

No JS? Fill the form by hand. The geolocation button needs JavaScript.